Home   Weather   Santander   Past weeks

Flag for Spain Past Weather in Santander, Spain — Yesterday and Last 2 Weeks

61 °F

Passing clouds.

Feels Like: 61 °F
Forecast: 59 / 71 °F
Wind: 7 mph from Northeast

Location: Santander / Parayas

Current Time: Oct 28, 2016 at 4:13:43 PM

Latest Report: Oct 28, 2016 at 3:30 PM

Visibility: N/A

Pressure: 30.39 "Hg

Humidity: 77%

Dew Point: 54 °F

Location of SantanderLocation

Past Weather in Santander — Graph


Santander Temperature Yesterday

Maximum temperature yesterday: 66 °F (at 1:00 PM)
Minimum temperature yesterday: 55 °F (at 10:00 PM)
Average temperature yesterday: 61 °F

High & Low Weather Summary for the Past Weeks

High75 °F (Oct 15, 4:30 PM)100% (Oct 17, 6:30 AM)30.45 "Hg (Oct 17, 6:30 AM)
Low45 °F (Oct 21, 7:00 AM)34% (Oct 23, 4:00 PM)29.39 "Hg (Oct 23, 6:00 AM)
Average61 °F77%30.01 "Hg
* Reported Oct 13 3:00 PM — Oct 28 3:00 PM, Santander, Weather by CustomWeather, © 2016

Note: Actual official high and low records may vary slightly from our data, if they occured in-between our weather recording intervals... More about our weather records


Santander Weather History for the Previous 24 Hours

Scroll right to see more
Time TempWeatherWind HumidityBarometerVisibility
3:00 PM
Fri, Oct 28
61 °FPassing clouds.7 mph83%30.39 "HgN/A
2:30 PM61 °FPassing clouds.6 mph77%30.39 "HgN/A
2:00 PM61 °FPassing clouds.5 mph83%30.42 "HgN/A
1:30 PM61 °FPassing clouds.3 mph83%30.42 "HgN/A
1:00 PM59 °FSunny.2 mph82%30.42 "Hg10 mi
12:30 PM57 °FPassing clouds.No wind82%30.42 "HgN/A
12:00 PM57 °FPassing clouds.No wind82%30.45 "Hg4 mi
11:30 AM55 °FPassing clouds.1 mph88%30.45 "Hg4 mi
11:00 AM55 °FFog.No wind88%30.45 "Hg2 mi
10:30 AM54 °FFog.No wind94%30.42 "Hg2 mi
10:00 AM52 °FFog.1 mph100%30.42 "Hg2 mi
9:30 AM52 °FFog.2 mph100%30.42 "Hg2 mi
9:00 AM54 °FFog.No wind94%30.42 "Hg2 mi
8:30 AM52 °FFog.2 mph100%30.39 "Hg2 mi
8:00 AM52 °FFog.1 mph100%30.39 "Hg2 mi
7:30 AM54 °FFog.1 mph94%30.39 "Hg2 mi
7:00 AM54 °FFog.No wind94%30.39 "Hg2 mi
6:30 AM52 °FFog.1 mph100%30.39 "Hg2 mi
6:00 AM52 °FFog.No wind100%30.39 "Hg1 mi
5:30 AM52 °FFog.No wind100%30.39 "Hg1 mi
5:00 AM52 °FCool.2 mph100%30.39 "Hg1 mi
4:30 AM52 °FFog.2 mph100%30.39 "Hg0 mi
4:00 AM52 °FFog.3 mph100%30.39 "Hg0 mi
3:30 AM54 °FCool.2 mph94%30.39 "Hg0 mi
3:00 AM55 °FFog.No wind94%30.39 "Hg0 mi
2:30 AM55 °FCool.No wind94%30.39 "Hg0 mi
2:00 AM55 °FCool.No wind94%30.39 "Hg1 mi
1:30 AM55 °FFog.2 mph94%30.39 "Hg1 mi
1:00 AM55 °FFog.3 mph94%30.39 "Hg2 mi
12:30 AM55 °FLow clouds.3 mph94%30.39 "Hg4 mi
12:00 AM55 °FLow clouds.1 mph94%30.39 "Hg4 mi
11:30 PM
Thu, Oct 27
55 °FPassing clouds.2 mph94%30.42 "Hg5 mi
11:00 PM55 °FPassing clouds.2 mph94%30.39 "HgN/A
10:30 PM55 °FPassing clouds.3 mph94%30.39 "HgN/A
10:00 PM55 °FClear.2 mph88%30.39 "Hg10 mi
9:30 PM57 °FPassing clouds.5 mph88%30.39 "HgN/A
9:00 PM57 °FPassing clouds.3 mph88%30.39 "HgN/A
8:30 PM57 °FPassing clouds.5 mph88%30.39 "HgN/A
8:00 PM57 °FPassing clouds.3 mph94%30.39 "HgN/A
7:30 PM59 °FPassing clouds.8 mph88%30.39 "HgN/A
7:00 PM61 °FPassing clouds.9 mph83%30.36 "HgN/A
6:30 PM61 °FPassing clouds.7 mph83%30.36 "HgN/A
6:00 PM63 °FPassing clouds.7 mph83%30.36 "HgN/A
5:30 PM64 °FPassing clouds.8 mph78%30.36 "HgN/A
5:00 PM64 °FPassing clouds.9 mph73%30.36 "HgN/A
4:30 PM64 °FPassing clouds.8 mph78%30.36 "HgN/A
4:00 PM66 °FPassing clouds.7 mph73%30.36 "HgN/A
Weather by CustomWeather, © 2016

See weather overviewHow to use our weather pages